RRR1 EDDF-ENTC

Flight info

Callsign RRR1
Flight time N/A
Altitude 35000
Route MARUN2D MARUN Y150 TOLGI DCT ALASA DCT MAVIP DCT PENNO DCT BARVI BARVI2M
Aircraft B738/M-SDE2E3FGHIRWXY/LB1

Departure

Time N/A
Airport Frankfurt Main Airport (EDDF)

Arrival

Time 2026-04-27 13:10
Airport Tromsø Airport (ENTC)
Time Latitude Longitude Altitude Speed Heading
2026-04-27 12:32 67.04271 15.46905 35341 ft 423 kts 11°
2026-04-27 12:32 67.09973 15.50806 35335 ft 424 kts 11°
2026-04-27 12:33 67.15649 15.54711 35334 ft 425 kts 11°
2026-04-27 12:33 67.21370 15.58664 35335 ft 425 kts 11°
2026-04-27 12:34 67.27065 15.62617 35336 ft 423 kts 11°
2026-04-27 12:34 67.32761 15.66593 35332 ft 423 kts 11°
2026-04-27 12:35 67.37472 15.69896 35326 ft 421 kts 11°
2026-04-27 12:35 67.43132 15.73868 35370 ft 421 kts 12°
2026-04-27 12:36 67.49717 15.78536 35331 ft 422 kts 12°
2026-04-27 12:36 67.54469 15.81919 35334 ft 422 kts 12°
2026-04-27 12:37 67.60095 15.85940 35325 ft 422 kts 12°
2026-04-27 12:37 67.65766 15.90012 35335 ft 422 kts 12°
2026-04-27 12:38 67.71421 15.94093 35328 ft 422 kts 12°
2026-04-27 12:38 67.77092 15.98206 35347 ft 423 kts 12°
2026-04-27 12:39 67.82777 16.02348 35323 ft 424 kts 12°
2026-04-27 12:39 67.88432 16.06492 35320 ft 425 kts 12°
2026-04-27 12:40 67.94149 16.10706 35324 ft 426 kts 12°
2026-04-27 12:40 67.99823 16.15520 35325 ft 428 kts 15°
2026-04-27 12:41 68.05452 16.20642 35318 ft 428 kts 15°
2026-04-27 12:41 68.11102 16.25758 35325 ft 428 kts 15°
2026-04-27 12:42 68.16718 16.30806 35328 ft 428 kts 15°
2026-04-27 12:42 68.22383 16.35900 35317 ft 428 kts 15°
2026-04-27 12:43 68.28037 16.41005 35318 ft 429 kts 15°
2026-04-27 12:43 68.33689 16.46139 35317 ft 429 kts 15°
2026-04-27 12:44 68.39349 16.51307 35340 ft 429 kts 15°
2026-04-27 12:44 68.45011 16.56504 35320 ft 430 kts 15°
2026-04-27 12:45 68.50643 16.61702 35324 ft 429 kts 15°
2026-04-27 12:45 68.56301 16.66950 35321 ft 430 kts 15°
2026-04-27 12:46 68.61975 16.72242 35319 ft 431 kts 15°
2026-04-27 12:46 68.67648 16.77562 35315 ft 431 kts 15°
2026-04-27 12:46 68.70493 16.80238 35064 ft 436 kts 15°
2026-04-27 12:47 68.73371 16.82953 34515 ft 435 kts 15°
2026-04-27 12:47 68.76233 16.85665 33729 ft 434 kts 15°
2026-04-27 12:47 68.79075 16.88366 33158 ft 428 kts 15°
2026-04-27 12:47 68.81884 16.91043 32276 ft 427 kts 15°
2026-04-27 12:48 68.84675 16.93710 31753 ft 419 kts 14°
2026-04-27 12:48 68.87422 16.96340 30929 ft 417 kts 14°
2026-04-27 12:48 68.90114 16.98927 30130 ft 404 kts 14°
2026-04-27 12:48 68.92746 17.01458 29314 ft 398 kts 14°
2026-04-27 12:49 68.95362 17.03972 28500 ft 396 kts 14°
2026-04-27 12:49 68.97930 17.06454 28038 ft 386 kts 14°
2026-04-27 12:49 69.00438 17.08901 27504 ft 379 kts 15°
2026-04-27 12:49 69.02815 17.12267 27049 ft 393 kts 29°
2026-04-27 12:50 69.04973 17.17088 26825 ft 410 kts 33°
2026-04-27 12:50 69.07176 17.22297 26211 ft 412 kts 34°
2026-04-27 12:50 69.09329 17.27477 25641 ft 407 kts 36°
2026-04-27 12:50 69.11474 17.32633 25023 ft 404 kts 36°
2026-04-27 12:51 69.13614 17.37747 24429 ft 400 kts 36°
2026-04-27 12:51 69.15732 17.42791 23837 ft 399 kts 36°
2026-04-27 12:51 69.17855 17.47835 23124 ft 401 kts 36°
2026-04-27 12:51 69.19971 17.52871 22526 ft 396 kts 37°
2026-04-27 12:52 69.22031 17.57787 21936 ft 390 kts 37°
2026-04-27 12:52 69.24116 17.62773 21332 ft 386 kts 37°
2026-04-27 12:52 69.26128 17.67596 20747 ft 383 kts 37°
2026-04-27 12:52 69.28151 17.72456 20191 ft 382 kts 37°
2026-04-27 12:53 69.32233 17.82297 19034 ft 386 kts 38°
2026-04-27 12:53 69.34268 17.87222 18450 ft 383 kts 38°
2026-04-27 12:53 69.36286 17.92123 17787 ft 379 kts 38°
2026-04-27 12:54 69.38247 17.96894 17230 ft 374 kts 38°
2026-04-27 12:54 69.40357 18.01062 16513 ft 369 kts 26°
2026-04-27 12:54 69.42655 18.04272 15905 ft 365 kts 23°
2026-04-27 12:54 69.44941 18.07317 15343 ft 361 kts 23°
2026-04-27 12:55 69.47199 18.10344 14819 ft 357 kts 23°
2026-04-27 12:55 69.49411 18.13504 14288 ft 353 kts 25°
2026-04-27 12:55 69.51566 18.16796 13726 ft 350 kts 26°
2026-04-27 12:55 69.53727 18.19889 13213 ft 345 kts 23°
2026-04-27 12:56 69.55889 18.22782 12712 ft 344 kts 22°
2026-04-27 12:56 69.58059 18.25705 12204 ft 343 kts 23°
2026-04-27 12:56 69.60212 18.28670 11678 ft 342 kts 23°
2026-04-27 12:56 69.62345 18.31666 11219 ft 340 kts 24°
2026-04-27 12:57 69.64411 18.34606 11103 ft 331 kts 24°
2026-04-27 12:57 69.66436 18.37508 10944 ft 319 kts 24°
2026-04-27 12:57 69.68377 18.40300 10812 ft 306 kts 24°
2026-04-27 12:57 69.70250 18.43003 10687 ft 295 kts 24°
2026-04-27 12:58 69.72057 18.45614 10547 ft 285 kts 24°
2026-04-27 12:58 69.73803 18.48111 10435 ft 274 kts 22°
2026-04-27 12:58 69.75487 18.50473 10337 ft 265 kts 24°
2026-04-27 12:58 69.77116 18.52863 10136 ft 261 kts 24°
2026-04-27 12:59 69.78731 18.55239 9857 ft 259 kts 24°
2026-04-27 12:59 69.80338 18.57601 9583 ft 258 kts 24°
2026-04-27 12:59 69.81910 18.59909 9332 ft 254 kts 24°
2026-04-27 12:59 69.83505 18.62248 9041 ft 252 kts 24°
2026-04-27 13:00 69.85045 18.64508 8767 ft 250 kts 24°
2026-04-27 13:00 69.86557 18.66733 8701 ft 236 kts 24°
2026-04-27 13:00 69.87981 18.68830 8582 ft 223 kts 23°
2026-04-27 13:00 69.89332 18.70820 8410 ft 213 kts 23°
2026-04-27 13:01 69.90669 18.72784 7993 ft 215 kts 23°
2026-04-27 13:01 69.92005 18.74752 7598 ft 215 kts 22°
2026-04-27 13:01 69.93325 18.76702 7215 ft 216 kts 22°
2026-04-27 13:01 69.94667 18.78685 6829 ft 217 kts 23°
2026-04-27 13:02 69.96013 18.80680 6448 ft 215 kts 23°
2026-04-27 13:02 69.97320 18.82627 6091 ft 207 kts 24°
2026-04-27 13:02 69.98403 18.85344 5733 ft 209 kts 55°
2026-04-27 13:02 69.98734 18.89401 5440 ft 209 kts 92°
2026-04-27 13:03 69.98186 18.93300 5114 ft 212 kts 127°
2026-04-27 13:03 69.97214 18.96569 5034 ft 215 kts 130°
2026-04-27 13:03 69.96225 18.99757 5012 ft 212 kts 130°
2026-04-27 13:03 69.95247 19.02885 4994 ft 206 kts 131°
2026-04-27 13:04 69.94290 19.05924 4970 ft 202 kts 131°
2026-04-27 13:04 69.93142 19.08177 4976 ft 201 kts 170°
2026-04-27 13:04 69.91777 19.07741 5025 ft 201 kts 202°
2026-04-27 13:04 69.90424 19.06597 4991 ft 202 kts 198°
2026-04-27 13:05 69.89067 19.05659 4971 ft 198 kts 197°
2026-04-27 13:05 69.87759 19.04791 4959 ft 187 kts 197°
2026-04-27 13:05 69.86523 19.03972 4942 ft 180 kts 197°
2026-04-27 13:05 69.85298 19.03166 4639 ft 185 kts 196°
2026-04-27 13:06 69.84063 19.02335 4312 ft 182 kts 196°
2026-04-27 13:06 69.82840 19.01521 3948 ft 179 kts 196°
2026-04-27 13:06 69.81643 19.00729 3611 ft 174 kts 196°
2026-04-27 13:06 69.80463 18.99948 3289 ft 174 kts 196°
2026-04-27 13:07 69.79305 18.99180 2968 ft 165 kts 196°
2026-04-27 13:07 69.78206 18.98450 2662 ft 157 kts 196°
2026-04-27 13:07 69.77157 18.97753 2361 ft 153 kts 196°
2026-04-27 13:07 69.76136 18.97077 2060 ft 148 kts 196°
2026-04-27 13:08 69.75138 18.96410 1789 ft 151 kts 196°
2026-04-27 13:08 69.74107 18.95727 1494 ft 153 kts 196°
2026-04-27 13:08 69.73067 18.95042 1187 ft 153 kts 197°
2026-04-27 13:08 69.72059 18.94351 863 ft 146 kts 196°
2026-04-27 13:09 69.71096 18.93702 617 ft 138 kts 194°
2026-04-27 13:09 69.70157 18.93116 325 ft 137 kts 194°
2026-04-27 13:09 69.69230 18.92505 88 ft 136 kts 195°
2026-04-27 13:09 69.68360 18.91888 30 ft 116 kts 193°
2026-04-27 13:10 69.67767 18.91520 38 ft 43 kts 191°
2026-04-27 13:10 69.67627 18.91386 38 ft 16 kts 236°
2026-04-27 13:10 69.67625 18.91250 38 ft 5 kts 283°
2026-04-27 13:10 69.67633 18.91153 41 ft 5 kts 283°
2026-04-27 13:11 69.67648 18.91055 38 ft 7 kts 317°
2026-04-27 13:11 69.67696 18.91029 38 ft 8 kts
2026-04-27 13:11 69.67747 18.91076 39 ft 7 kts 28°
2026-04-27 13:11 69.67791 18.91122 38 ft 6 kts 340°
2026-04-27 13:12 69.67802 18.91015 38 ft 5 kts 274°
2026-04-27 13:12 69.67810 18.90918 37 ft 0 kts 284°
2026-04-27 13:12 69.67814 18.90879 35 ft 4 kts 283°
2026-04-27 13:12 69.67815 18.90856 36 ft 1 kts 283°
2026-04-27 13:13 69.67818 18.90825 36 ft 2 kts 283°
2026-04-27 13:13 69.67819 18.90810 36 ft 1 kts 283°
2026-04-27 13:13 69.67819 18.90809 36 ft 0 kts 283°